TimeEST,TemperatureF,Dew PointF,Humidity,Sea Level PressureIn,VisibilityMPH,Wind Direction,Wind SpeedMPH,Gust SpeedMPH,PrecipitationIn,Events,Conditions,WindDirDegrees,DateUTC
12:15 AM,68.0,-9999,N/A,30.07,10.0,Calm,Calm,-,N/A,,Overcast,0,2013-02-22 05:15:00
12:35 AM,68.0,-9999,N/A,30.07,10.0,SE,3.5,-,N/A,,Overcast,140,2013-02-22 05:35:00
12:55 AM,66.2,-9999,N/A,30.06,10.0,SE,3.5,-,N/A,,Overcast,130,2013-02-22 05:55:00
1:15 AM,68.0,68.0,100,30.06,10.0,SSE,3.5,-,N/A,,Mostly Cloudy,150,2013-02-22 06:15:00
1:55 AM,68.0,64.4,88,30.06,10.0,SSE,3.5,-,N/A,,Mostly Cloudy,150,2013-02-22 06:55:00
2:15 AM,68.0,64.4,88,30.05,10.0,SE,3.5,-,N/A,,Scattered Clouds,140,2013-02-22 07:15:00
2:35 AM,66.2,64.4,94,30.05,10.0,SE,3.5,-,N/A,,Clear,130,2013-02-22 07:35:00
2:55 AM,66.2,66.2,100,30.05,10.0,SE,3.5,-,N/A,,Clear,130,2013-02-22 07:55:00
3:15 AM,66.2,66.2,100,30.05,10.0,ESE,3.5,-,N/A,,Clear,120,2013-02-22 08:15:00
3:35 AM,66.2,-9999,N/A,30.05,10.0,ESE,3.5,-,N/A,,Clear,110,2013-02-22 08:35:00
3:55 AM,66.2,-9999,N/A,30.05,10.0,SE,3.5,-,N/A,,Clear,130,2013-02-22 08:55:00
4:15 AM,64.4,-9999,N/A,30.06,10.0,ESE,3.5,-,N/A,,Clear,120,2013-02-22 09:15:00
4:35 AM,66.2,-9999,N/A,30.06,10.0,Calm,Calm,-,N/A,,Clear,0,2013-02-22 09:35:00
4:55 AM,64.4,-9999,N/A,30.07,10.0,SE,3.5,-,N/A,,Clear,130,2013-02-22 09:55:00
5:15 AM,64.4,-9999,N/A,30.07,7.0,SE,3.5,-,N/A,,Clear,130,2013-02-22 10:15:00
5:35 AM,64.4,-9999,N/A,30.07,7.0,SE,3.5,-,N/A,,Clear,130,2013-02-22 10:35:00
5:55 AM,64.4,-9999,N/A,30.08,7.0,Calm,Calm,-,N/A,,Clear,0,2013-02-22 10:55:00
6:15 AM,64.4,-9999,N/A,30.08,5.0,SE,3.5,-,N/A,,Haze,130,2013-02-22 11:15:00
6:35 AM,64.4,-9999,N/A,30.08,5.0,SE,4.6,-,N/A,,Haze,140,2013-02-22 11:35:00
6:55 AM,64.4,-9999,N/A,30.09,5.0,SE,3.5,-,N/A,,Haze,130,2013-02-22 11:55:00
7:15 AM,64.4,-9999,N/A,30.09,5.0,SE,4.6,-,N/A,,Haze,140,2013-02-22 12:15:00
7:35 AM,66.2,-9999,N/A,30.10,5.0,SE,4.6,-,N/A,,Haze,140,2013-02-22 12:35:00
7:55 AM,66.2,-9999,N/A,30.11,5.0,SE,4.6,-,N/A,,Haze,140,2013-02-22 12:55:00
8:15 AM,68.0,-9999,N/A,30.11,7.0,SE,5.8,-,N/A,,Clear,140,2013-02-22 13:15:00
8:35 AM,69.8,-9999,N/A,30.11,10.0,SE,8.1,-,N/A,,Clear,140,2013-02-22 13:35:00
8:55 AM,71.6,-9999,N/A,30.11,10.0,SE,9.2,-,N/A,,Clear,140,2013-02-22 13:55:00
9:15 AM,71.6,-9999,N/A,30.11,10.0,SSE,10.4,-,N/A,,Scattered Clouds,150,2013-02-22 14:15:00
9:35 AM,75.2,68.0,78,30.11,10.0,SSE,10.4,-,N/A,,Mostly Cloudy,150,2013-02-22 14:35:00
9:55 AM,77.0,68.0,74,30.11,10.0,SSE,11.5,-,N/A,,Scattered Clouds,160,2013-02-22 14:55:00
10:15 AM,78.8,68.0,69,30.11,10.0,SSE,11.5,-,N/A,,Scattered Clouds,160,2013-02-22 15:15:00
10:35 AM,78.8,68.0,69,30.11,10.0,SSE,9.2,-,N/A,,Scattered Clouds,160,2013-02-22 15:35:00
10:55 AM,78.8,66.2,65,30.11,10.0,South,10.4,-,N/A,,Mostly Cloudy,170,2013-02-22 15:55:00
11:15 AM,82.4,64.4,54,30.10,10.0,South,8.1,-,N/A,,Scattered Clouds,170,2013-02-22 16:15:00
11:35 AM,82.4,66.2,58,30.09,10.0,South,9.2,-,N/A,,Scattered Clouds,190,2013-02-22 16:35:00
11:55 AM,84.2,64.4,51,30.09,10.0,South,6.9,-,N/A,,Scattered Clouds,180,2013-02-22 16:55:00
12:15 PM,84.2,64.4,51,30.09,10.0,South,9.2,-,N/A,,Scattered Clouds,190,2013-02-22 17:15:00
12:35 PM,84.2,62.6,48,30.08,10.0,South,6.9,-,N/A,,Scattered Clouds,170,2013-02-22 17:35:00
12:55 PM,86.0,62.6,45,30.07,10.0,SSE,6.9,-,N/A,,Scattered Clouds,160,2013-02-22 17:55:00
1:15 PM,86.0,62.6,45,30.07,10.0,South,5.8,-,N/A,,Mostly Cloudy,180,2013-02-22 18:15:00
1:35 PM,84.2,60.8,45,30.06,10.0,SE,4.6,-,N/A,,Mostly Cloudy,130,2013-02-22 18:35:00
2:15 PM,86.0,60.8,43,30.04,10.0,East,6.9,-,N/A,,Mostly Cloudy,90,2013-02-22 19:15:00
2:35 PM,87.8,59.0,38,30.04,10.0,SSW,10.4,-,N/A,,Mostly Cloudy,200,2013-02-22 19:35:00
2:55 PM,87.8,59.0,38,30.03,10.0,South,5.8,-,N/A,,Scattered Clouds,190,2013-02-22 19:55:00
3:15 PM,87.8,59.0,38,30.03,10.0,SSW,5.8,-,N/A,,Mostly Cloudy,200,2013-02-22 20:15:00
3:35 PM,86.0,57.2,37,30.02,10.0,SSE,4.6,-,N/A,,Scattered Clouds,150,2013-02-22 20:35:00
3:55 PM,86.0,59.0,40,30.02,10.0,South,4.6,-,N/A,,Clear,180,2013-02-22 20:55:00
4:15 PM,86.0,62.6,45,30.02,10.0,SW,8.1,-,N/A,,Scattered Clouds,230,2013-02-22 21:15:00
4:35 PM,84.2,64.4,51,30.02,10.0,West,11.5,-,N/A,,Scattered Clouds,260,2013-02-22 21:35:00
4:55 PM,84.2,66.2,55,30.02,10.0,West,12.7,-,N/A,,Clear,260,2013-02-22 21:55:00
5:15 PM,82.4,66.2,58,30.02,10.0,West,11.5,-,N/A,,Clear,260,2013-02-22 22:15:00
5:35 PM,80.6,66.2,61,30.02,10.0,West,10.4,-,N/A,,Clear,260,2013-02-22 22:35:00
5:55 PM,80.6,66.2,61,30.03,10.0,West,10.4,-,N/A,,Clear,260,2013-02-22 22:55:00
6:15 PM,78.8,66.2,65,30.04,10.0,West,11.5,-,N/A,,Clear,260,2013-02-22 23:15:00
6:35 PM,77.0,66.2,69,30.04,10.0,West,8.1,-,N/A,,Scattered Clouds,260,2013-02-22 23:35:00
6:55 PM,75.2,66.2,73,30.05,10.0,West,9.2,-,N/A,,Clear,260,2013-02-22 23:55:00
7:15 PM,75.2,66.2,73,30.05,10.0,WSW,8.1,-,N/A,,Scattered Clouds,250,2013-02-23 00:15:00
7:35 PM,73.4,66.2,78,30.05,10.0,West,5.8,-,N/A,,Clear,260,2013-02-23 00:35:00
7:55 PM,73.4,66.2,78,30.06,10.0,WSW,5.8,-,N/A,,Scattered Clouds,250,2013-02-23 00:55:00
8:15 PM,73.4,66.2,78,30.06,10.0,WSW,5.8,-,N/A,,Clear,250,2013-02-23 01:15:00
8:35 PM,71.6,66.2,83,30.06,10.0,Calm,Calm,-,N/A,,Clear,0,2013-02-23 01:35:00
8:55 PM,71.6,66.2,83,30.07,10.0,Calm,Calm,-,N/A,,Clear,0,2013-02-23 01:55:00
9:15 PM,69.8,66.2,88,30.07,10.0,SE,3.5,-,N/A,,Clear,140,2013-02-23 02:15:00
9:35 PM,71.6,69.8,94,30.08,10.0,South,4.6,-,N/A,,Clear,170,2013-02-23 02:35:00
9:55 PM,71.6,68.0,88,30.08,10.0,SSE,5.8,-,N/A,,Clear,160,2013-02-23 02:55:00
10:15 PM,71.6,66.2,83,30.08,10.0,South,5.8,-,N/A,,Clear,180,2013-02-23 03:15:00
10:35 PM,71.6,66.2,83,30.08,10.0,SSE,4.6,-,N/A,,Clear,150,2013-02-23 03:35:00
10:55 PM,71.6,66.2,83,30.07,10.0,South,4.6,-,N/A,,Clear,170,2013-02-23 03:55:00
11:15 PM,71.6,68.0,88,30.07,10.0,SSE,4.6,-,N/A,,Scattered Clouds,160,2013-02-23 04:15:00
11:35 PM,71.6,68.0,88,30.06,10.0,SSE,5.8,-,N/A,,Scattered Clouds,150,2013-02-23 04:35:00
11:55 PM,71.6,68.0,88,30.05,10.0,SSE,5.8,-,N/A,,Mostly Cloudy,160,2013-02-23 04:55:00